User: anonymous   Login
Location: Unspecified
(0.0000°N, 0.0000°E)
Time: 01:08:53
(UTC+00:00)
Language:

OBJECT C - Orbit

View from above orbital plane
View from above orbital plane
View from above satellite
View from above satellite

Ground track
Ground track

The orbit is defined by the following mean orbital elements,

1 61240U          26145.60449817 +.00000000 +00000-0 +16744-3 0 00008
2 61240  97.4423 153.8891 0000508  29.8121 330.3142 15.18700167    07
Epoch (UTC): 25 May 2026 14:30:28
Eccentricity: 0.0000508
inclination: 97.4423°
perigee height: 509 km
apogee height: 510 km
right ascension of ascending node: 153.8891°
argument of perigee: 29.8121°
revolutions per day: 15.18700167
mean anomaly at epoch: 330.3142°

The dashed part of the orbit path shows where the satellite is in the earth's shadow,  

DLR